This is the latest recevied weather packets stored in our database for station/object KD4MBW. If no packets are shown the sender has not sent any weather packets the latest 10 day(s).
| Time | Temp. | Humidity | Pressure | Rain* | Wind** | Luminosity | Snow |
|---|---|---|---|---|---|---|---|
| 1777684958 | 16.67° C | 99% | 1012 hPa | 0 mm | - | 0 W/m² | - |
| 1777684655 | 16.67° C | 99% | 1012 hPa | 0 mm | - | 0 W/m² | - |
| 1777684351 | 16.67° C | 99% | 1011.9 hPa | 0 mm | - | 0 W/m² | - |
| 1777684049 | 16.67° C | 99% | 1011.8 hPa | 0 mm | - | 0 W/m² | - |
| 1777683744 | 16.67° C | 99% | 1011.8 hPa | 0 mm | - | 0 W/m² | - |
| 1777683442 | 16.67° C | 99% | 1011.7 hPa | 0 mm | - | 0 W/m² | - |
| 1777683140 | 16.67° C | 99% | 1011.7 hPa | 0 mm | - | 0 W/m² | - |
| 1777682836 | 16.67° C | 99% | 1011.4 hPa | 0 mm | - | 0 W/m² | - |
| 1777682533 | 16.67° C | 99% | 1011.5 hPa | 0 mm | - | 0 W/m² | - |
| 1777682231 | 16.67° C | 99% | 1011.2 hPa | 0 mm | - | 0 W/m² | - |
| 1777681928 | 16.67° C | 99% | 1011.3 hPa | 0 mm | - | 0 W/m² | - |
| 1777681623 | 16.11° C | 99% | 1011.3 hPa | 0 mm | - | 0 W/m² | - |
| 1777681321 | 16.11° C | 99% | 1011.3 hPa | 0 mm | - | 1 W/m² | - |
| 1777681018 | 16.11° C | 99% | 1011.4 hPa | 0 mm | - | 1 W/m² | - |
| 1777680716 | 16.11° C | 99% | 1011.1 hPa | 0 mm | - | 2 W/m² | - |
| 1777680413 | 16.11° C | 99% | 1011.1 hPa | 0 mm | - | 4 W/m² | - |
| 1777680111 | 16.11° C | 99% | 1011 hPa | 0 mm | - | 6 W/m² | - |
| 1777679806 | 16.11° C | 99% | 1010.9 hPa | 0 mm | - | 8 W/m² | - |
| 1777679503 | 16.11° C | 99% | 1011 hPa | 0 mm | - | 11 W/m² | - |
| 1777679198 | 16.11° C | 99% | 1011 hPa | 0 mm | - | 15 W/m² | - |
| 1777678896 | 16.11° C | 99% | 1010.9 hPa | 0 mm | - | 16 W/m² | - |
| 1777678594 | 16.11° C | 99% | 1011 hPa | 0 mm | - | 18 W/m² | - |
| 1777678291 | 16.67° C | 99% | 1010.7 hPa | 0 mm | - | 23 W/m² | - |
| 1777677987 | 16.67° C | 99% | 1010.8 hPa | 1.78 mm | - | 15 W/m² | - |
| 1777677685 | 16.67° C | 99% | 1011 hPa | 1.78 mm | - | 20 W/m² | - |
* Rain latest hour (hover to see other rain measurements)
** Current wind speed in m/s (hover to see current wind gust speed)